User: anonymous   Login
Location: Barrio Las Umbrías
(40.4173°N, 4.8685°W)
Time: 05:35:55
(UTC+00:00)
Language:

Cosmos 1782 - Orbit

View from above orbital plane
View from above orbital plane
View from above satellite
View from above satellite

Ground track
Ground track

The orbit data is extracted from the following two-line orbital elements,

1 16986U 86074A   22340.72452532  .00003470  00000-0  21357-3 0  9991
2 16986  82.5386 334.8090 0010012  53.6506 306.5646 15.09674809950744
Epoch (UTC): 06 December 2022 17:23:18
Eccentricity: 0.0010012
inclination: 82.5386°
perigee height: 530 km
apogee height: 544 km
right ascension of ascending node: 334.8090°
argument of perigee: 53.6506°
revolutions per day: 15.09674809
mean anomaly at epoch: 306.5646°
orbit number at epoch: 95074

The dashed part of the orbit path shows where the satellite is in the earth's shadow,  

DLR